Regional Weather Roundup
Issued by NWS

Home | Current Version | Previous Version | Graphics & Text | Print | Product List | Glossary On
Versions: 1 2 3 4 5 6 7 8 9 10 11 12 13 14 15 16 17 18 19 20 21 22 23 24 25 26 27 28 29 30 31 32 33 34 35 36 37 38 39 40 41 42 43 44 45 46 47 48 49 50
468
ASUS44 KMEG 230310
RWRTN
TENNESSEE HOURLY STATE WEATHER ROUNDUP
NATIONAL WEATHER SERVICE MEMPHIS TN
1000 PM CDT MON MAY 22 2017

TNZ002-004-019-021-049-052-054-088>092-230400-
WEST TENNESSEE

CITY           SKY/WX    TMP DP  RH WIND       PRES   REMARKS
MEMPHIS INTL   MOCLDY    67  58  72 N6        29.94F
NWS MEMPHIS      N/A     65 N/A N/A MISG        N/A
JACKSON        CLOUDY    66  60  81 CALM      29.96R
DYERSBURG      CLOUDY    67  59  75 CALM      29.96F HAZE
COVINGTON      CLOUDY    66  61  82 CALM      29.95F
UNION CITY       N/A     66  57  72 SE3       29.96S
BOLIVAR        CLOUDY    64  61  88 CALM      29.95R
PARIS          PTCLDY    64  59  82 N3        29.96R
HUNTINGDON     MOCLDY    64  59  82 CALM      29.96R
SELMER         CLOUDY    64  61  88 N3        29.95F
SAVANNAH       CLOUDY    66  63  88 CALM      29.95R
$$

TNZ008-025-027-028-033-062-065-066-230400-
NORTH MIDDLE TENNESSEE

CITY           SKY/WX    TMP DP  RH WIND       PRES   REMARKS
NASHVILLE      CLOUDY    67  55  65 NE7       29.97F
PORTLAND       CLEAR     63  57  82 CALM      29.97S
CLARKSVILLE    CLOUDY    65  53  65 NE5       29.97F
SMYRNA         CLOUDY    68  55  64 NE5       29.98R
COOKEVILLE     CLOUDY    63  59  88 N6        29.95F
GALLATIN       CLEAR     64  55  72 N6        30.00S
CROSSVILLE     CLOUDY    62  54  74 NE3       30.00S
$$

TNZ061-075-076-078-094-096-097-230400-
SOUTH MIDDLE TENNESSEE

CITY           SKY/WX    TMP DP  RH WIND       PRES   REMARKS
FAYETTEVILLE   MOCLDY    68  63  83 CALM      29.94F
TULLAHOMA      CLEAR     66  57  72 N3        29.96F
WINCHESTER     MOCLDY    66  64  94 SE3       29.95F
MCMINNVILLE    CLEAR     64  57  77 N3        29.96F
COLUMBIA       PTCLDY    66  55  68 CALM      29.94S
SHELBYVILLE    PTCLDY    64  57  77 N3        29.95F
$$

TNZ017-018-042-046-047-230400-
NORTHEAST TENNESSEE

CITY           SKY/WX    TMP DP  RH WIND       PRES   REMARKS
TRI CITIES     MOCLDY    63  60  90 CALM      29.98F
ELIZABETHTON   DRIZZLE   63  61  94 CALM      29.98F
$$

TNZ012-013-036-069-073-074-230400-
CENTRAL EAST TENNESSEE

CITY           SKY/WX    TMP DP  RH WIND       PRES   REMARKS
KNOXVILLE      CLOUDY    68  63  84 N6        29.94S
OAK RIDGE      CLOUDY    66  55  67 CALM      29.97S
DOWNTOWN KNOXV PTCLDY    64  63  94 CALM      29.95S
GATLINBURG     PTCLDY    64  63  94 CALM      29.95S
MORRISTOWN     PTCLDY    66  63  88 CALM      29.96S
JACKSBORO      CLEAR     59  57  94 CALM      30.00S
$$

TNZ083-085-099-230400-
SOUTHEAST TENNESSEE

CITY           SKY/WX    TMP DP  RH WIND       PRES   REMARKS
CHATTANOOGA    LGT RAIN  71  66  84 CALM      29.96R FOG
$$

SKY/WX REPORTED AS FAIR MEANS FEW OR NO CLOUDS BELOW
12 THOUSAND FEET.





USA.gov is the U.S. government's official web portal to all federal, state and local government web resources and services.